Wind_Speed
16 14 17 21 25 30 15 4 1 5 6 2 1 3 4 1 4 3 5 3 4 3 5 5 5 6 2 5 10 11 9 4 8 14 1 4 4 7 8 6 5 3 4 8
11 13 16 19 21 23 8 3 2 2 2 3 2 1 3 3 2 3 2 2 4 2 2 3 3 5 3 5 7 9 10 6 10 8 4 2 6 6 6 2 1 9 5 7
8 11 15 17 19 20 0 1 1 1 2 1 2 1 1 2 3 4 3 2 1 2 2 2 5 3 3 2 2 2 9 5 8 10 8 3 5 7 8 9 4 5 6 12
7 10 14 15 19 17 1 1 2 2 2 3 2 0 1 2 1 3 1 1 3 3 3 2 3 1 2 3 5 2 6 5 4 7 3 8 6 10 12 11 9 6 5 5
5 9 13 15 18 11 2 2 2 1 0 1 3 1 2 1 2 1 2 2 1 4 4 2 4 3 1 2 2 2 0 1 3 5 6 8 6 8 13 12 8 13 8 13
4 8 11 14 16 8 2 2 1 2 1 1 3 3 1 1 4 2 3 2 3 10 5 2 3 4 6 4 1 2 2 4 3 3 1 7 5 12 9 5 6 6 7 9
5 6 10 13 15 15 4 1 1 2 1 2 2 1 2 1 3 2 3 5 1 2 0 7 4 3 3 2 5 3 2 2 1 1 3 6 2 3 3 7 9 10 13 13
6 8 9 11 13 14 6 1 1 1 2 2 3 4 3 4 1 2 2 4 3 1 4 3 3 2 2 1 2 4 1 2 1 3 6 2 2 5 7 8 5 12 10 8
6 8 8 11 12 14 7 1 1 1 2 2 2 1 1 2 2 1 2 3 2 2 1 3 4 5 3 4 2 1 3 2 3 1 4 7 3 5 2 2 8 11 6 5
8 7 8 11 13 13 8 1 1 1 2 2 3 3 1 2 1 1 2 4 1 1 2 3 3 3 1 5 5 4 2 1 5 4 5 4 3 6 5 5 4 4 2 3
7 8 9 11 13 12 10 1 3 2 2 6 5 3 3 2 1 2 1 2 1 1 2 2 3 3 3 2 0 2 4 5 4 2 3 7 3 6 4 6 5 5 3 3
8 9 10 11 12 12 10 0 3 6 4 4 4 8 14 13 5 1 1 2 1 1 3 1 2 2 2 2 3 2 4 3 2 5 1 1 0 5 5 2 3 5 4 2
9 9 9 10 12 12 11 5 6 2 2 5 4 7 8 19 26 16 2 1 1 2 1 2 2 2 3 3 3 2 3 3 3 3 2 3 4 5 6 2 3 3 2 4
9 9 10 10 11 12 12 6 5 3 1 3 3 3 5 3 8 21 23 0 3 4 1 1 2 2 3 1 1 2 2 5 3 5 7 5 2 3 5 1 2 3 4 3
10 10 10 10 11 13 13 11 4 8 2 3 5 14 2 3 6 15 21 12 2 1 1 1 1 2 3 1 1 3 4 2 3 1 1 2 4 8 2 5 3 4 4 8
10 10 10 11 12 15 5 2 1 4 5 2 3 5 2 4 6 13 15 11 3 1 1 1 2 1 1 2 2 4 1 5 9 4 6 4 4 4 2 4 2 5 4 16
11 12 12 11 11 11 3 2 2 7 4 2 4 4 0 4 5 3 4 8 2 2 2 2 2 3 3 2 3 1 10 7 5 9 5 1 3 3 5 5 4 7 9 16
13 13 13 13 14 12 6 2 11 11 2 2 2 4 2 1 2 4 3 4 3 3 0 2 2 2 2 3 1 6 7 9 5 5 4 5 5 4 0 3 2 7 9 11
15 16 13 5 2 2 1 6 5 17 2 2 2 2 2 2 2 2 3 3 4 2 3 3 4 3 4 1 3 7 6 5 9 10 1 4 2 3 2 4 5 6 10 10
11 2 2 2 2 3 3 2 2 3 3 2 3 1 3 1 1 2 3 2 3 3 2 3 3 2 2 1 4 7 6 6 7 4 4 5 6 7 9 9 10 10 11 9
1 1 1 2 2 3 2 2 3 3 3 4 3 4 2 2 1 2 1 3 2 4 3 3 3 2 2 1 2 4 4 4 6 7 7 7 5 8 11 14 16 18 18 14
6 6 5 2 3 2 3 3 2 4 3 4 3 2 4 1 1 1 2 2 2 2 3 3 3 3 3 2 4 6 6 7 10 12 12 14 15 15 14 14 17 21 20 18
1 2 2 2 3 3 4 6 3 3 3 3 2 2 2 2 1 2 2 4 2 4 3 2 1 5 4 3 3 6 8 10 13 14 19 21 23 22 18 16 18 19 20 20
1 2 1 3 3 4 3 2 1 1 1 1 1 2 2 1 3 1 3 2 3 3 4 2 4 8 6 4 4 7 10 11 13 13 19 21 21 20 19 20 18 21 21 19
2 0 3 4 2 3 3 2 2 1 2 1 2 2 1 2 2 1 3 3 3 1 1 2 6 8 6 6 6 8 10 9 11 15 17 16 21 20 20 19 18 18 19 21
2 3 3 2 2 1 2 2 2 2 2 1 2 2 3 2 1 3 2 3 2 2 1 4 8 8 7 7 7 8 12 14 15 16 17 17 17 18 19 19 19 19 19 18
2 2 2 3 4 4 2 2 1 2 1 2 1 2 2 0 2 3 1 2 2 3 4 6 7 9 8 8 10 11 14 15 16 18 16 16 16 16 17 18 14 15 15 15
Wind_Direction
318 325 331 334 341 344 351 336 194 348 333 127 5 178 193 240 274 190 245 238 235 210 162 148 167 181 232 175 163 182 189 202 231 236 110 325 217 234 194 233 228 228 291 272
315 326 331 337 342 345 336 344 297 351 328 165 146 213 238 242 246 246 206 253 231 178 164 128 153 194 124 150 172 165 172 214 237 244 188 149 225 199 197 136 153 234 256 267
319 328 331 339 341 340 311 282 175 116 72 23 107 98 171 272 206 248 264 277 219 178 126 32 157 143 120 74 41 37 178 172 212 242 240 148 194 190 188 205 200 174 229 280
315 332 335 347 347 349 38 335 59 2 167 183 141 200 340 294 32 211 278 201 242 165 130 106 110 112 88 82 33 69 197 230 214 254 268 215 191 175 178 206 235 250 321 235
326 337 339 351 357 356 349 339 334 60 81 290 187 144 164 284 337 273 83 103 95 163 125 25 149 151 121 107 65 88 336 237 206 258 197 206 222 220 199 218 237 255 262 269
330 341 346 355 5 12 2 350 254 277 78 128 195 174 174 120 321 178 61 334 124 92 74 23 24 69 81 77 334 141 208 170 175 248 313 165 213 210 195 201 225 263 230 276
356 355 359 5 9 16 352 334 297 272 149 241 205 152 319 199 326 314 24 33 62 83 46 119 115 85 84 63 70 25 166 136 213 153 164 218 63 121 197 231 256 236 266 280
10 5 9 6 7 7 351 265 274 303 265 280 260 252 285 310 297 183 341 43 56 335 139 97 97 45 349 350 28 39 39 148 238 222 209 328 228 220 191 199 251 212 239 275
5 11 6 357 2 4 1 70 147 297 304 200 302 265 331 314 343 166 116 61 36 153 168 169 179 187 168 199 199 87 75 88 238 168 237 229 237 176 128 221 261 176 198 254
14 15 2 0 2 6 11 78 350 282 278 265 199 222 209 141 128 287 322 352 29 326 153 170 182 197 238 186 192 182 195 216 243 229 254 276 230 152 140 215 352 89 251 206
6 7 359 358 359 2 8 152 57 3 284 273 218 244 202 153 225 205 51 225 160 68 140 188 162 193 186 235 147 200 214 194 205 172 227 267 65 131 221 1 359 13 339 324
348 349 351 351 355 356 6 346 292 313 241 289 252 249 254 247 256 176 176 334 225 153 105 157 119 155 173 178 216 183 241 242 280 235 250 131 283 276 300 277 347 14 355 273
337 341 344 347 354 357 359 327 328 319 282 278 283 244 263 239 231 231 262 218 147 151 21 132 116 190 174 190 223 244 213 169 254 307 76 285 271 251 263 314 350 348 100 198
327 330 332 333 338 341 337 321 281 281 293 285 281 324 280 264 211 212 213 81 109 98 152 120 156 184 222 194 21 257 10 167 219 253 280 300 56 339 281 219 155 97 76 106
317 322 324 325 326 327 322 292 256 209 285 300 295 308 304 307 196 192 194 198 171 153 149 166 159 131 178 138 262 238 185 242 237 350 101 272 291 328 284 205 182 126 109 89
306 311 315 319 323 329 331 206 58 173 189 305 302 344 282 28 138 160 176 193 203 275 234 130 184 124 245 200 242 184 218 279 253 277 349 301 299 301 225 205 193 131 160 86
307 309 311 309 309 313 251 328 140 141 185 258 297 313 105 95 121 116 139 179 178 251 197 210 167 183 206 217 250 62 317 321 293 274 283 205 71 92 101 89 106 141 131 99
307 306 302 296 293 283 284 280 218 209 279 249 283 281 272 176 149 122 151 143 187 194 139 145 172 146 235 254 95 338 319 308 263 353 253 278 294 307 147 11 350 129 133 132
308 303 293 291 221 199 95 16 189 191 294 292 235 272 125 356 113 112 151 186 166 116 212 183 171 165 223 256 330 309 333 313 291 293 110 65 28 75 119 210 190 152 145 131
308 302 197 171 184 133 160 228 159 178 202 228 251 213 250 308 160 129 141 205 133 179 151 144 216 200 100 28 315 302 306 303 327 350 77 54 93 83 83 82 82 101 112 113
3 313 234 314 162 155 205 189 212 166 222 195 235 231 272 177 265 118 12 139 149 201 145 222 174 208 128 331 9 355 358 14 54 71 68 64 81 97 100 93 95 94 88 88
316 291 302 301 202 163 195 209 173 216 244 185 206 211 210 232 274 153 150 151 195 178 133 195 202 116 113 82 33 23 34 58 69 72 81 83 82 83 88 92 93 92 95 89
287 225 225 195 161 166 213 185 189 222 199 192 195 197 211 166 209 107 178 182 128 137 182 205 112 120 140 89 55 69 71 74 76 77 80 81 78 74 76 79 79 86 86 88
273 220 168 246 190 229 204 189 116 5 225 240 219 233 214 149 175 112 192 88 155 171 194 189 142 150 130 86 50 95 90 84 86 85 85 85 83 73 70 77 80 82 80 83
258 336 238 221 305 268 272 292 304 55 326 276 166 170 248 145 142 205 122 156 192 237 128 93 134 136 124 106 103 100 94 88 83 84 84 79 84 82 74 71 81 89 90 85
244 231 267 266 266 301 3 31 50 22 339 225 233 148 170 113 144 157 122 165 178 121 76 123 135 133 127 118 106 95 93 95 93 82 79 82 84 88 89 81 75 75 77 78
230 253 249 268 271 262 289 324 4 324 218 220 234 107 45 114 121 130 32 70 72 109 120 135 145 143 134 121 109 106 108 100 98 100 97 99 102 101 92 84 80 81 79 78
Height
794 791 788 784 779 772 767 765 756 756 756 757 772 762 764 758 750 747 748 747 747 749 750 755 756 756 753 742 747 761 756 762 779 771 765 762 758 763 767 789 799 802 801 779
792 790 787 783 779 775 772 768 764 757 757 760 763 762 757 754 750 748 748 748 746 744 746 756 750 751 740 742 747 754 757 766 783 777 771 770 767 765 762 771 781 790 795 773
790 789 786 782 778 774 773 769 759 757 758 762 756 758 757 755 746 748 744 744 741 743 746 746 751 747 743 742 747 752 748 758 759 775 765 757 770 767 770 763 782 780 774 756
789 788 785 781 777 773 773 769 765 767 759 759 757 757 759 756 752 746 744 747 745 743 752 751 752 747 746 744 751 753 746 759 764 750 756 750 749 758 767 770 759 764 751 758
788 787 784 780 777 773 773 768 766 765 763 765 758 763 757 755 749 748 746 747 745 743 748 750 753 749 751 750 748 753 755 761 765 758 756 751 755 751 753 758 759 758 753 750
787 786 783 780 777 774 773 773 772 769 767 761 757 754 755 753 752 743 742 744 743 746 751 750 749 747 750 750 754 755 757 759 766 764 762 757 768 750 749 750 748 746 754 731
786 785 783 781 778 776 775 775 774 766 761 761 756 756 756 754 753 751 743 742 743 750 749 750 749 749 751 750 757 756 760 765 766 765 766 785 747 741 743 748 741 739 738 731
786 785 784 782 779 777 774 774 774 769 762 763 757 756 754 752 752 751 748 746 749 749 748 754 761 760 757 753 754 755 759 762 768 768 766 764 753 746 748 750 736 729 733 730
786 785 784 782 780 777 774 774 774 773 767 758 759 758 757 754 753 750 748 749 750 749 751 755 766 769 764 766 759 760 759 762 760 776 771 774 737 740 739 742 746 724 728 731
786 785 783 781 779 777 774 774 774 774 768 759 760 758 755 755 757 755 757 754 750 749 751 757 763 767 766 767 764 764 763 763 765 762 764 749 736 739 742 758 747 731 729 726
786 784 783 781 779 777 775 775 774 775 770 761 759 757 756 757 757 756 756 756 753 754 757 762 765 767 768 768 763 764 761 761 766 772 772 769 742 745 750 750 739 738 734 731
786 784 783 781 779 777 776 775 774 774 775 761 757 756 754 755 755 755 758 757 756 755 761 765 766 769 774 771 765 767 770 758 758 756 747 746 744 745 742 743 743 740 736 734
785 784 783 781 779 777 777 775 774 773 772 758 754 744 745 747 749 754 757 755 755 756 758 762 767 766 767 766 761 762 759 761 760 758 748 744 740 738 740 740 739 737 733 734
784 782 781 780 778 777 776 775 774 775 773 768 745 743 743 742 744 747 752 755 756 757 758 760 762 762 764 760 761 761 756 760 756 753 742 735 737 738 738 738 736 734 734 734
782 781 780 778 776 774 773 771 770 771 774 762 749 743 741 740 740 744 749 753 754 756 757 758 759 762 762 764 763 759 754 752 751 745 745 747 742 739 737 737 734 733 735 739
781 779 778 776 774 772 769 768 770 769 771 770 758 745 740 740 741 744 748 752 755 756 753 756 760 758 757 762 759 747 749 751 750 743 742 742 740 737 735 734 734 735 740 731
778 776 775 773 773 771 771 769 771 770 771 769 758 745 739 740 741 746 750 753 753 753 752 755 754 757 757 755 755 750 748 748 746 743 742 741 738 738 736 735 734 737 739 735
774 773 771 770 769 768 767 765 766 769 771 770 763 749 740 739 738 742 747 750 753 753 750 757 755 759 757 757 753 754 751 748 744 742 743 740 739 739 741 739 739 740 742 744
770 768 767 765 765 765 765 762 763 768 774 763 761 757 740 737 738 740 744 743 750 753 747 752 753 756 756 753 757 757 753 753 750 747 737 737 741 740 737 737 737 739 743 749
766 766 765 762 763 764 765 766 767 768 766 765 757 751 746 741 736 737 738 742 742 748 747 750 749 748 753 754 755 755 754 751 745 738 736 740 743 741 740 740 741 743 748 751
766 765 763 762 761 763 764 760 761 759 757 754 748 745 744 739 734 734 737 740 741 744 745 746 749 748 754 755 754 753 751 748 746 745 744 744 743 742 742 744 748 751 756 761
768 767 765 763 761 760 759 756 754 752 744 742 740 738 741 737 738 735 740 739 745 742 746 747 746 755 757 755 754 752 751 749 749 749 749 750 749 751 752 754 753 756 761 765
766 765 762 758 757 760 752 748 744 743 737 737 738 736 736 740 738 738 737 736 740 743 745 743 749 756 757 758 756 755 755 754 753 754 754 756 757 759 762 764 763 763 765 768
763 758 759 751 750 744 738 737 736 734 735 735 738 737 733 736 735 736 733 740 740 745 746 741 750 754 757 757 758 757 758 759 760 762 762 762 765 769 772 771 773 774 776 780
760 758 752 747 741 739 737 736 736 735 737 737 738 736 736 733 732 735 736 741 740 740 741 747 752 756 759 759 760 761 763 765 766 767 768 772 770 775 779 781 783 785 786 784
761 758 750 746 746 740 737 737 737 739 738 738 736 734 732 734 730 731 736 735 738 745 748 752 755 759 761 763 764 766 768 770 772 774 777 779 781 784 786 788 789 790 791 793
757 753 752 750 748 746 741 739 739 739 738 734 733 731 738 737 733 738 743 741 746 748 755 756 757 759 762 765 767 770 772 775 777 780 784 787 788 790 791 792 797 797 798 798